DIERAUER Weather Reports


Display with metric or nautical units.
time (UTC)temp
F
wind
direction
speed
MPH
gust
MPH
rain 1hr
in
rain 24hr
in
rain mn
in
humidity
%
barometer
mb
20260903051532 75 209 3.0 5.0 0.00 0.00 0.00 85 1016.9
20260903050018 76 217 3.0 5.0 0.00 0.00 0.00 85 1016.6
20260903044519 76 209 3.0 5.0 0.00 0.00 0.00 84 1016.5
20260903043027 76 210 3.0 5.0 0.00 0.00 0.00 85 1016.5
20260903041518 76 205 3.0 4.0 0.00 0.00 0.00 85 1016.4
20260903040015 76 215 2.0 3.0 0.00 0.00 0.00 85 1016.4
20260903034510 76 222 2.0 3.0 0.00 0.00 0.00 85 1016.5
20260903033028 77 213 2.0 4.0 0.00 0.00 0.00 84 1016.6
20260903031539 77 224 2.0 3.0 0.00 0.00 0.00 85 1016.6
20260903030027 77 213 2.0 4.0 0.00 0.00 0.00 84 1016.8
20260903024510 78 225 2.0 3.0 0.00 0.00 0.00 83 1016.8
20260903023034 78 209 2.0 3.0 0.00 0.00 0.00 83 1017.0
20260903021542 78 202 2.0 3.0 0.00 0.00 0.00 84 1017.0
20260903020035 78 217 2.0 2.0 0.00 0.00 0.00 83 1017.0
20260903014542 79 214 2.0 3.0 0.00 0.00 0.00 82 1017.0
20260903013018 79 233 2.0 3.0 0.00 0.00 0.00 82 1016.8
20260903011538 79 196 2.0 4.0 0.00 0.00 0.00 82 1016.7
20260903010006 79 217 2.0 4.0 0.00 0.00 0.00 83 1016.6
20260903004507 79 222 1.0 2.0 0.00 0.00 0.00 83 1016.5
20260903003019 79 203 2.0 3.0 0.00 0.00 0.00 82 1016.4
20260903001515 80 202 2.0 2.0 0.00 0.00 0.00 81 1016.4
20260903000014 81 223 0.0 2.0 0.00 0.00 0.00 79 1016.4
20260902234510 84 207 1.0 4.0 0.00 0.00 0.00 74 1016.3
20260902233006 85 225 2.0 4.0 0.00 0.00 0.00 71 1016.4
20260902231504 86 227 2.0 4.0 0.00 0.00 0.00 70 1016.4
20260902230026 87 198 3.0 5.0 0.00 0.00 0.00 67 1016.4
20260902224522 88 221 3.0 7.0 0.00 0.00 0.00 64 1016.5
20260902223019 88 221 2.0 7.0 0.00 0.00 0.00 63 1016.4
20260902221517 89 254 3.0 7.0 0.00 0.00 0.00 62 1016.5
20260902220043 89 225 4.0 7.0 0.00 0.00 0.00 60 1016.6
20260902214546 90 200 4.0 9.0 0.00 0.00 0.00 57 1016.6
20260902213030 90 257 3.0 10.0 0.00 0.00 0.00 58 1016.6
20260902211535 90 219 5.0 10.0 0.00 0.00 0.00 56 1016.7
20260902210036 91 223 5.0 10.0 0.00 0.00 0.00 57 1016.8
20260902204527 91 212 3.0 10.0 0.00 0.00 0.00 58 1017.0
20260902203038 90 234 6.0 11.0 0.00 0.00 0.00 59 1017.1
20260902201541 91 259 3.0 12.0 0.00 0.00 0.00 58 1017.2
20260902200033 91 248 8.0 12.0 0.00 0.00 0.00 56 1017.3
20260902194529 91 260 2.0 9.0 0.00 0.00 0.00 57 1017.4
20260902193028 91 225 2.0 10.0 0.00 0.00 0.00 58 1017.6
20260902191533 91 228 4.0 13.0 0.00 0.00 0.00 57 1017.8
20260902190020 90 244 3.0 10.0 0.00 0.00 0.00 61 1018.0
20260902184522 90 249 6.0 10.0 0.00 0.00 0.00 59 1018.0
20260902183012 90 238 5.0 10.0 0.00 0.00 0.00 62 1018.1
20260902181508 90 235 4.0 11.0 0.00 0.00 0.00 59 1018.2
20260902180036 90 229 6.0 13.0 0.00 0.00 0.00 63 1018.4
20260902174506 89 194 4.0 12.0 0.00 0.00 0.00 61 1018.5
20260902173013 89 211 6.0 10.0 0.00 0.00 0.00 62 1018.6
20260902171507 89 184 7.0 10.0 0.00 0.00 0.00 64 1018.9
20260902170032 89 236 3.0 11.0 0.00 0.00 0.00 68 1018.9
20260902164515 88 246 4.0 9.0 0.00 0.00 0.00 66 1018.8
20260902163012 88 212 4.0 8.0 0.00 0.00 0.00 66 1019.0
20260902161505 88 271 1.0 5.0 0.00 0.00 0.00 70 1019.0
20260902160009 87 251 4.0 6.0 0.00 0.00 0.00 70 1019.2
20260902154522 86 250 2.0 7.0 0.00 0.00 0.00 70 1019.2
20260902153035 85 243 2.0 8.0 0.00 0.00 0.00 72 1019.3
20260902151523 85 318 4.0 8.0 0.00 0.00 0.00 71 1019.4
20260902150007 84 200 2.0 9.0 0.00 0.00 0.00 74 1019.3
20260902144515 84 229 4.0 9.0 0.00 0.00 0.00 74 1019.3
20260902143009 83 275 3.0 8.0 0.00 0.00 0.00 74 1019.3
20260902141509 82 209 3.0 7.0 0.00 0.00 0.00 78 1019.2
20260902140030 81 249 2.0 10.0 0.00 0.00 0.00 79 1019.1
20260902134508 81 251 3.0 7.0 0.00 0.00 0.00 78 1019.2
20260902133017 79 241 3.0 7.0 0.00 0.00 0.00 79 1019.1
20260902131517 79 236 5.0 9.0 0.00 0.00 0.00 81 1019.1
20260902130015 78 240 5.0 10.0 0.00 0.00 0.00 83 1019.0
20260902124508 76 235 5.0 7.0 0.00 0.00 0.00 85 1018.9
20260902123010 75 229 4.0 7.0 0.00 0.00 0.00 86 1018.7
20260902121518 73 213 4.0 6.0 0.00 0.00 0.00 88 1018.7
20260902120034 73 216 3.0 5.0 0.00 0.00 0.00 89 1018.7
20260902114537 72 229 3.0 6.0 0.00 0.00 0.00 90 1018.6
20260902113011 72 214 3.0 5.0 0.00 0.00 0.00 90 1018.5
20260902111519 72 222 3.0 6.0 0.00 0.00 0.00 89 1018.3
20260902110013 72 200 3.0 6.0 0.00 0.00 0.00 89 1018.3
20260902104529 72 201 3.0 5.0 0.00 0.00 0.00 89 1018.3
20260902103033 72 212 3.0 5.0 0.00 0.00 0.00 89 1018.3
20260902101518 72 227 3.0 5.0 0.00 0.00 0.00 89 1018.4
20260902100022 72 209 2.0 4.0 0.00 0.00 0.00 89 1018.4
20260902094524 72 211 2.0 4.0 0.00 0.00 0.00 90 1018.3
20260902093020 71 209 2.0 3.0 0.00 0.00 0.00 90 1018.3
20260902091520 70 229 2.0 2.0 0.00 0.00 0.00 92 1018.2
20260902090023 70 200 1.0 2.0 0.00 0.00 0.00 92 1018.2
20260902084526 70 200 1.0 2.0 0.00 0.00 0.00 92 1018.1
20260902083028 70 200 1.0 2.0 0.00 0.00 0.00 91 1018.0
20260902081528 71 190 2.0 3.0 0.00 0.00 0.00 90 1017.9
20260902080024 72 201 2.0 3.0 0.00 0.00 0.00 89 1017.7
20260902074520 73 215 2.0 3.0 0.00 0.00 0.00 88 1017.7
20260902073020 74 223 2.0 4.0 0.00 0.00 0.00 86 1017.6
20260902071534 73 215 3.0 5.0 0.00 0.00 0.00 87 1017.5
20260902070041 74 215 2.0 4.0 0.00 0.00 0.00 86 1017.4
20260902064843 74 246 2.0 4.0 0.00 0.00 0.00 85 1017.4
20260902063029 74 232 2.0 4.0 0.00 0.00 0.00 85 1017.5
20260902061528 75 240 3.0 6.0 0.00 0.00 0.00 85 1017.5
20260902060455 75 221 3.0 5.0 0.00 0.00 0.00 85 1017.6
20260902054533 74 204 3.0 5.0 0.00 0.00 0.00 86 1017.6
20260902053025 74 200 3.0 5.0 0.00 0.00 0.00 87 1017.7